Flag for Slovakia Weather past 2 weeks in Košice, Slovakia

Now
43 °F

Clear.


Feels Like: 36 °F
Forecast: 39 / 60 °F
Wind: 13 mph from North

Location: Kosice - Barca

Current Time: Apr 21, 2015 at 4:23:41 AM

Latest Report: Apr 21, 2015 at 4:00 AM


Visibility: 10 mi

Pressure: 30.07 "Hg

Humidity: 57%

Dew point: 28 °F

Location of KošiceLocation

Historic Weather in Košice — Graph

°F

Košice temperature yesterday

Maximum temperature yesterday: 57 °F (at 4:00 PM)
Minimum temperature yesterday: 36 °F (at 6:00 AM)
Average temperature yesterday: 49 °F

Past Weeks' High & Low Weather Summary

 TemperatureHumidityPressure
High79 °F (Apr 16, 4:00 PM)94% (Apr 17, 7:00 PM)30.42 "Hg (Apr 17, 7:00 PM)
Low28 °F (Apr 6, 4:00 AM)17% (Apr 9, 4:30 PM)29.74 "Hg (Apr 16, 4:30 PM)
Average50 °F52%30.12 "Hg
* Reported Apr 6 3:00 AM — Apr 21 3:00 AM, Košice, Weather by CustomWeather, © 2015

Note: Actual official high and low records may vary slightly from our data, if they occured in-between our weather recording intervals... More about our weather records

Advertising

Košice weather history for previous 24 hours

 ConditionsComfort  
Time TempWeatherWind HumidityBarometerVisibility
3:00 AM
Tue, Apr 21
45 °FPartly cloudy.9 mph53%30.07 "HgN/A
2:30 AM46 °FClear.12 mph50%30.07 "Hg10 mi
2:00 AM46 °FPassing clouds.8 mph50%30.07 "HgN/A
1:30 AM46 °FPassing clouds.6 mph53%30.04 "HgN/A
1:00 AM46 °FPassing clouds.6 mph57%30.04 "HgN/A
12:30 AM46 °FPassing clouds.7 mph57%30.04 "HgN/A
12:00 AM46 °FClear.5 mph57%30.04 "Hg10 mi
11:30 PM
Mon, Apr 20
46 °FClear.8 mph57%30.04 "Hg10 mi
11:00 PM46 °FClear.12 mph57%30.01 "Hg10 mi
10:30 PM48 °FClear.17 mph50%30.01 "Hg10 mi
10:00 PM50 °FPassing clouds.18 mph47%30.01 "HgN/A
9:30 PM50 °FClear.14 mph43%29.98 "Hg10 mi
9:00 PM50 °FClear.12 mph43%29.98 "Hg10 mi
8:30 PM50 °FSunny.13 mph43%29.98 "Hg10 mi
8:00 PM52 °FPartly sunny.17 mph41%29.95 "HgN/A
7:30 PM52 °FBroken clouds.14 mph44%29.95 "HgN/A
7:00 PM50 °FScattered clouds.13 mph50%29.92 "HgN/A
6:30 PM52 °FScattered clouds.17 mph44%29.92 "HgN/A
6:00 PM54 °FLight rain. Partly sunny.17 mph38%29.92 "HgN/A
5:30 PM54 °FLight rain. Broken clouds.25 mph44%29.89 "HgN/A
5:00 PM55 °FSunny.23 mph36%29.89 "Hg10 mi
4:30 PM57 °FSunny.20 mph36%29.89 "Hg10 mi
4:00 PM57 °FSunny.17 mph36%29.89 "Hg10 mi
3:30 PM55 °FPassing clouds.16 mph36%29.89 "HgN/A
3:00 PM55 °FPartly sunny.17 mph38%29.89 "HgN/A
2:30 PM55 °FSunny.20 mph38%29.89 "Hg10 mi
2:00 PM54 °FSunny.18 mph41%29.89 "Hg10 mi
1:30 PM54 °FSunny.23 mph44%29.89 "Hg10 mi
1:00 PM55 °FSunny.24 mph41%29.89 "Hg10 mi
12:30 PM54 °FSunny.23 mph44%29.89 "Hg10 mi
12:00 PM54 °FSunny.21 mph44%29.92 "Hg10 mi
11:30 AM54 °FSunny.15 mph41%29.92 "Hg10 mi
11:00 AM52 °FPassing clouds.13 mph44%29.92 "HgN/A
10:30 AM50 °FPassing clouds.15 mph47%29.95 "HgN/A
10:00 AM50 °FSunny.15 mph43%29.95 "Hg10 mi
9:30 AM50 °FSunny.16 mph43%29.95 "Hg10 mi
9:00 AM52 °FSunny.17 mph41%29.95 "Hg10 mi
8:30 AM50 °FSunny.12 mph47%29.95 "Hg10 mi
8:00 AM45 °FSunny.2 mph61%29.98 "Hg10 mi
7:30 AM39 °FPassing clouds.3 mph75%29.98 "HgN/A
7:00 AM37 °FPassing clouds.3 mph81%29.98 "HgN/A
6:30 AM37 °FClear.2 mph75%29.98 "Hg10 mi
6:00 AM36 °FPassing clouds.5 mph81%29.98 "HgN/A
5:30 AM37 °FClear.3 mph70%29.98 "Hg10 mi
5:00 AM45 °FClear.1 mph53%29.98 "Hg10 mi
4:30 AM43 °FClear.5 mph57%29.98 "Hg10 mi
4:00 AM45 °FPassing clouds.6 mph57%29.98 "HgN/A
Weather by CustomWeather, © 2015

See weather overviewHow to use our weather pages